Time,TemperatureF,DewpointF,PressureIn,WindDirection,WindDirectionDegrees,WindSpeedMPH,WindSpeedGustMPH,Humidity,HourlyPrecipIn,Conditions,Clouds,dailyrainin,SolarRadiationWatts/m^2,SoftwareType,DateUTC
2013-05-03 00:03:00,30.0,29.0,-100.00,North,10,8.0,19.0,95,0.00,,,0.09,0.000000,,2013-05-03 04:03:00,
2013-05-03 00:12:00,30.0,29.0,-100.00,North,5,9.0,21.0,95,0.00,,,0.09,0.000000,,2013-05-03 04:12:00,
2013-05-03 00:32:00,30.0,29.0,-100.00,North,5,9.0,21.0,95,0.00,,,0.09,0.000000,,2013-05-03 04:32:00,
2013-05-03 00:43:00,30.0,29.0,-100.00,North,5,9.0,21.0,95,0.00,,,0.09,0.000000,,2013-05-03 04:43:00,
2013-05-03 00:53:00,30.0,29.0,-100.00,North,5,9.0,21.0,95,0.00,,,0.09,0.000000,,2013-05-03 04:53:00,
2013-05-03 01:02:00,30.0,29.0,-100.00,North,5,9.0,21.0,95,0.00,,,0.09,0.000000,,2013-05-03 05:02:00,
2013-05-03 01:12:00,30.0,29.0,-100.00,North,7,8.0,23.0,95,0.00,,,0.09,0.000000,,2013-05-03 05:12:00,
2013-05-03 01:32:00,30.0,29.0,-100.00,North,7,8.0,23.0,95,0.00,,,0.09,0.000000,,2013-05-03 05:32:00,
2013-05-03 01:42:00,30.0,29.0,-100.00,North,7,8.0,23.0,95,0.00,,,0.09,0.000000,,2013-05-03 05:42:00,
2013-05-03 01:52:00,30.0,29.0,-100.00,North,7,8.0,23.0,95,0.00,,,0.09,0.000000,,2013-05-03 05:52:00,
2013-05-03 02:02:00,30.0,29.0,-100.00,North,7,8.0,23.0,95,0.00,,,0.09,0.000000,,2013-05-03 06:02:00,
2013-05-03 02:32:00,30.0,29.0,-100.00,North,10,9.0,19.0,95,0.00,,,-99.99,0.000000,,2013-05-03 06:32:00,
2013-05-03 02:42:00,30.0,29.0,-100.00,North,10,9.0,19.0,95,0.00,,,-99.99,0.000000,,2013-05-03 06:42:00,
2013-05-03 02:52:00,30.0,29.0,-100.00,North,10,9.0,19.0,95,0.00,,,-99.99,0.000000,,2013-05-03 06:52:00,
2013-05-03 03:01:00,30.0,29.0,-100.00,North,10,9.0,19.0,95,0.00,,,-99.99,0.000000,,2013-05-03 07:01:00,
2013-05-03 03:11:00,30.0,29.0,-100.00,North,10,9.0,19.0,95,0.00,,,-99.99,0.000000,,2013-05-03 07:11:00,
2013-05-03 03:32:00,30.0,29.0,-100.00,North,2,8.0,18.0,95,0.00,,,-99.99,0.000000,,2013-05-03 07:32:00,
2013-05-03 03:42:00,30.0,29.0,-100.00,North,2,8.0,18.0,95,0.00,,,-99.99,0.000000,,2013-05-03 07:42:00,
2013-05-03 03:52:00,30.0,29.0,-100.00,North,2,8.0,18.0,95,0.00,,,-99.99,0.000000,,2013-05-03 07:52:00,
2013-05-03 04:02:00,30.0,29.0,-100.00,North,2,8.0,18.0,95,0.00,,,-99.99,0.000000,,2013-05-03 08:02:00,
2013-05-03 04:11:00,30.0,29.0,-100.00,North,2,8.0,18.0,95,0.00,,,-99.99,0.000000,,2013-05-03 08:11:00,
2013-05-03 04:12:00,30.0,29.0,-100.00,North,6,7.0,17.0,95,0.00,,,0.09,0.000000,,2013-05-03 08:12:00,
2013-05-03 04:42:00,30.0,29.0,-100.00,North,6,7.0,17.0,95,0.00,,,0.09,0.000000,,2013-05-03 08:42:00,
2013-05-03 04:53:00,30.0,29.0,-100.00,North,6,7.0,17.0,95,0.00,,,0.09,0.000000,,2013-05-03 08:53:00,
2013-05-03 05:01:00,30.0,29.0,-100.00,North,6,7.0,17.0,95,0.00,,,0.09,0.000000,,2013-05-03 09:01:00,
2013-05-03 05:12:00,30.0,29.0,-100.00,NNE,15,7.0,17.0,95,0.00,,,0.09,0.000000,,2013-05-03 09:12:00,
2013-05-03 05:42:00,30.0,29.0,-100.00,NNE,15,7.0,17.0,95,0.00,,,0.09,0.000000,,2013-05-03 09:42:00,
2013-05-03 05:53:00,30.0,29.0,-100.00,NNE,15,7.0,17.0,95,0.00,,,0.09,0.000000,,2013-05-03 09:53:00,
2013-05-03 06:03:00,30.0,29.0,-100.00,NNE,15,7.0,17.0,95,0.00,,,0.09,0.000000,,2013-05-03 10:03:00,
2013-05-03 06:32:00,30.0,29.0,-100.00,NNE,12,8.0,18.0,96,0.00,,,0.09,0.000000,,2013-05-03 10:32:00,
2013-05-03 06:42:00,30.0,29.0,-100.00,NNE,12,8.0,18.0,96,0.00,,,0.09,0.000000,,2013-05-03 10:42:00,
2013-05-03 06:52:00,30.0,29.0,-100.00,NNE,12,8.0,18.0,96,0.00,,,0.09,0.000000,,2013-05-03 10:52:00,
2013-05-03 07:02:00,30.0,29.0,-100.00,NNE,12,8.0,18.0,96,0.00,,,0.09,0.000000,,2013-05-03 11:02:00,
2013-05-03 07:11:00,30.0,29.0,-100.00,NNE,12,8.0,18.0,96,0.00,,,0.09,0.000000,,2013-05-03 11:11:00,
2013-05-03 07:32:00,30.0,29.0,-100.00,North,7,8.0,21.0,97,0.00,,,0.09,1.000000,,2013-05-03 11:32:00,
2013-05-03 07:42:00,30.0,29.0,-100.00,North,7,8.0,21.0,97,0.00,,,0.09,1.000000,,2013-05-03 11:42:00,
2013-05-03 07:52:00,30.0,29.0,-100.00,North,7,8.0,21.0,97,0.00,,,0.09,1.000000,,2013-05-03 11:52:00,
2013-05-03 08:01:00,30.0,29.0,-100.00,North,7,8.0,21.0,97,0.00,,,0.09,1.000000,,2013-05-03 12:01:00,
2013-05-03 08:11:00,30.0,29.0,-100.00,North,7,8.0,21.0,97,0.00,,,0.09,1.000000,,2013-05-03 12:11:00,
2013-05-03 09:42:00,31.0,30.0,-100.00,North,10,7.0,16.0,97,-99.99,,,0.09,31.000000,,2013-05-03 13:42:00,
2013-05-03 09:52:00,31.0,30.0,-100.00,North,10,7.0,16.0,97,-99.99,,,0.09,31.000000,,2013-05-03 13:52:00,
2013-05-03 10:02:00,31.0,30.0,-100.00,North,10,7.0,16.0,97,-99.99,,,0.09,31.000000,,2013-05-03 14:02:00,
2013-05-03 10:11:00,31.0,30.0,-100.00,North,10,7.0,16.0,97,-99.99,,,0.09,31.000000,,2013-05-03 14:11:00,
2013-05-03 10:42:00,31.0,30.0,-100.00,NNE,13,7.0,15.0,97,0.00,,,0.09,78.000000,,2013-05-03 14:42:00,
2013-05-03 10:52:00,31.0,30.0,-100.00,NNE,13,7.0,15.0,97,0.00,,,0.09,78.000000,,2013-05-03 14:52:00,
2013-05-03 11:01:00,31.0,30.0,-100.00,NNE,13,7.0,15.0,97,0.00,,,0.09,78.000000,,2013-05-03 15:01:00,
2013-05-03 11:11:00,31.0,30.0,-100.00,NNE,13,7.0,15.0,97,0.00,,,0.09,78.000000,,2013-05-03 15:11:00,
2013-05-03 11:12:00,32.0,31.0,-100.00,NNE,16,6.0,13.0,96,0.00,,,0.09,141.000000,,2013-05-03 15:12:00,
2013-05-03 11:43:00,32.0,31.0,-100.00,NNE,16,6.0,13.0,96,0.00,,,0.09,141.000000,,2013-05-03 15:43:00,
2013-05-03 11:53:00,32.0,31.0,-100.00,NNE,16,6.0,13.0,96,0.00,,,0.09,141.000000,,2013-05-03 15:53:00,
2013-05-03 12:03:00,32.0,31.0,-100.00,NNE,16,6.0,13.0,96,0.00,,,0.09,141.000000,,2013-05-03 16:03:00,
2013-05-03 12:12:00,33.0,32.0,-100.00,NNE,16,6.0,19.0,96,0.01,,,0.10,289.000000,,2013-05-03 16:12:00,
2013-05-03 12:33:00,33.0,32.0,-100.00,NNE,16,6.0,19.0,96,0.01,,,0.10,289.000000,,2013-05-03 16:33:00,
2013-05-03 12:42:00,33.0,32.0,-100.00,NNE,16,6.0,19.0,96,0.01,,,0.10,289.000000,,2013-05-03 16:42:00,
2013-05-03 12:52:00,33.0,32.0,-100.00,NNE,16,6.0,19.0,96,0.01,,,0.10,289.000000,,2013-05-03 16:52:00,
2013-05-03 13:02:00,33.0,32.0,-100.00,NNE,16,6.0,19.0,96,0.01,,,0.10,289.000000,,2013-05-03 17:02:00,
2013-05-03 13:12:00,35.0,33.0,-100.00,North,7,7.0,16.0,92,0.11,,,0.21,362.000000,,2013-05-03 17:12:00,
2013-05-03 13:42:00,35.0,33.0,-100.00,North,7,7.0,16.0,92,0.11,,,0.21,362.000000,,2013-05-03 17:42:00,
2013-05-03 13:52:00,35.0,33.0,-100.00,North,7,7.0,16.0,92,0.11,,,0.21,362.000000,,2013-05-03 17:52:00,
2013-05-03 14:01:00,35.0,33.0,-100.00,North,7,7.0,16.0,92,0.11,,,0.21,362.000000,,2013-05-03 18:01:00,
2013-05-03 14:32:00,36.0,33.0,-100.00,NNE,16,7.0,16.0,89,0.09,,,0.30,303.000000,,2013-05-03 18:32:00,
2013-05-03 14:42:00,36.0,33.0,-100.00,NNE,16,7.0,16.0,89,0.09,,,0.30,303.000000,,2013-05-03 18:42:00,
2013-05-03 14:52:00,36.0,33.0,-100.00,NNE,16,7.0,16.0,89,0.09,,,0.30,303.000000,,2013-05-03 18:52:00,
2013-05-03 15:01:00,36.0,33.0,-100.00,NNE,16,7.0,16.0,89,0.09,,,0.30,303.000000,,2013-05-03 19:01:00,
2013-05-03 15:11:00,36.0,33.0,-100.00,NNE,16,7.0,16.0,89,0.09,,,0.30,303.000000,,2013-05-03 19:11:00,
2013-05-03 15:32:00,37.0,34.0,-100.00,NNE,19,5.0,16.0,87,0.02,,,0.32,327.000000,,2013-05-03 19:32:00,
2013-05-03 15:42:00,37.0,34.0,-100.00,NNE,19,5.0,16.0,87,0.02,,,0.32,327.000000,,2013-05-03 19:42:00,
2013-05-03 15:52:00,37.0,34.0,-100.00,NNE,19,5.0,16.0,87,0.02,,,0.32,327.000000,,2013-05-03 19:52:00,
2013-05-03 16:02:00,37.0,34.0,-100.00,NNE,19,5.0,16.0,87,0.02,,,0.32,327.000000,,2013-05-03 20:02:00,
2013-05-03 16:11:00,37.0,34.0,-100.00,NNE,19,5.0,16.0,87,0.02,,,0.32,327.000000,,2013-05-03 20:11:00,
2013-05-03 16:32:00,37.0,34.0,-100.00,NNE,27,5.0,15.0,87,0.00,,,0.32,321.000000,,2013-05-03 20:32:00,
2013-05-03 16:42:00,37.0,34.0,-100.00,NNE,27,5.0,15.0,87,0.00,,,0.32,321.000000,,2013-05-03 20:42:00,
2013-05-03 16:52:00,37.0,34.0,-100.00,NNE,27,5.0,15.0,87,0.00,,,0.32,321.000000,,2013-05-03 20:52:00,
2013-05-03 17:01:00,37.0,34.0,-100.00,NNE,27,5.0,15.0,87,0.00,,,0.32,321.000000,,2013-05-03 21:01:00,
2013-05-03 17:11:00,37.0,34.0,-100.00,NNE,27,5.0,15.0,87,0.00,,,0.32,321.000000,,2013-05-03 21:11:00,
2013-05-03 17:12:00,35.0,32.0,-100.00,North,7,7.0,15.0,89,0.00,,,0.24,177.000000,,2013-05-03 21:12:00,
2013-05-03 17:33:00,35.0,32.0,-100.00,North,7,7.0,15.0,89,0.00,,,0.24,177.000000,,2013-05-03 21:33:00,
2013-05-03 17:43:00,35.0,32.0,-100.00,North,7,7.0,15.0,89,0.00,,,0.24,177.000000,,2013-05-03 21:43:00,
2013-05-03 17:53:00,35.0,32.0,-100.00,North,7,7.0,15.0,89,0.00,,,0.24,177.000000,,2013-05-03 21:53:00,
2013-05-03 18:02:00,35.0,32.0,-100.00,North,7,7.0,15.0,89,0.00,,,0.24,177.000000,,2013-05-03 22:02:00,
2013-05-03 21:32:00,33.0,32.0,-100.00,NNE,18,4.0,14.0,96,-99.99,,,0.24,12.000000,,2013-05-04 01:32:00,
2013-05-03 21:42:00,33.0,32.0,-100.00,NNE,18,4.0,14.0,96,-99.99,,,0.24,12.000000,,2013-05-04 01:42:00,
2013-05-03 21:52:00,33.0,32.0,-100.00,NNE,18,4.0,14.0,96,-99.99,,,0.24,12.000000,,2013-05-04 01:52:00,
2013-05-03 22:02:00,33.0,32.0,-100.00,NNE,18,4.0,14.0,96,-99.99,,,0.24,12.000000,,2013-05-04 02:02:00,
2013-05-03 22:11:00,33.0,32.0,-100.00,NNE,18,4.0,14.0,96,-99.99,,,0.24,12.000000,,2013-05-04 02:11:00,
2013-05-03 22:32:00,33.0,32.0,-100.00,North,7,5.0,11.0,96,0.00,,,0.24,0.000000,,2013-05-04 02:32:00,
2013-05-03 22:42:00,33.0,32.0,-100.00,North,7,5.0,11.0,96,0.00,,,0.24,0.000000,,2013-05-04 02:42:00,
2013-05-03 22:52:00,33.0,32.0,-100.00,North,7,5.0,11.0,96,0.00,,,0.24,0.000000,,2013-05-04 02:52:00,
2013-05-03 23:02:00,33.0,32.0,-100.00,North,7,5.0,11.0,96,0.00,,,0.24,0.000000,,2013-05-04 03:02:00,
2013-05-03 23:11:00,33.0,32.0,-100.00,North,7,5.0,11.0,96,0.00,,,0.24,0.000000,,2013-05-04 03:11:00,
2013-05-03 23:12:00,33.0,32.0,-100.00,NNE,18,4.0,12.0,96,0.00,,,0.24,0.000000,,2013-05-04 03:12:00,
2013-05-03 23:43:00,33.0,32.0,-100.00,NNE,18,4.0,12.0,96,0.00,,,0.24,0.000000,,2013-05-04 03:43:00,
2013-05-03 23:53:00,33.0,32.0,-100.00,NNE,18,4.0,12.0,96,0.00,,,0.24,0.000000,,2013-05-04 03:53:00,